Location: Unspecified
(0.0000°N, 0.0000°E)
Time: 15:06:51
(UTC+00:00)

COSMOS 2501 (GLONASS) - Pass Details

Date: 25 October 2019
Orbit: 19087 x 19173 km, 64.0° (Epoch: 21 November)

Event Time Altitude Azimuth Distance (km) Brightness Sun altitude
Rises 16:07:02 0° 206° (SSW) 24,691 ? 23.7°
Reaches altitude 10° 16:30:35 10° 209° (SSW) 23,612 ? 18.0°
Maximum altitude 18:25:27 44° 267° (W) 20,720 ? -10.1°
Drops below altitude 10° 01:17:49 10° 127° (SE) 23,570 ? -63.7°
Sets 01:55:31 0° 142° (SE) 24,664 ? -55.2°
